TimeEDT,TemperatureF,Dew PointF,Humidity,Sea Level PressureIn,VisibilityMPH,Wind Direction,Wind SpeedMPH,Gust SpeedMPH,PrecipitationIn,Events,Conditions,WindDirDegrees,DateUTC
12:51 AM,70.0,66.0,87,30.02,10.0,WSW,8.1,-,N/A,,Clear,240,2013-07-08 04:51:00
1:51 AM,69.1,66.9,93,30.03,10.0,WSW,5.8,-,N/A,,Clear,250,2013-07-08 05:51:00
2:51 AM,69.1,66.9,93,30.02,10.0,SW,6.9,-,N/A,,Clear,230,2013-07-08 06:51:00
3:51 AM,68.0,66.9,96,30.01,10.0,WSW,6.9,-,N/A,,Clear,240,2013-07-08 07:51:00
4:51 AM,69.1,66.9,93,30.03,10.0,WSW,6.9,-,N/A,,Clear,240,2013-07-08 08:51:00
5:51 AM,68.0,66.0,93,30.05,10.0,WSW,5.8,-,N/A,,Clear,240,2013-07-08 09:51:00
6:51 AM,71.1,66.9,87,30.06,9.0,WSW,4.6,-,N/A,,Clear,240,2013-07-08 10:51:00
7:51 AM,73.0,68.0,84,30.06,8.0,WSW,6.9,-,N/A,,Clear,240,2013-07-08 11:51:00
8:51 AM,75.0,68.0,79,30.06,9.0,WSW,5.8,-,N/A,,Clear,240,2013-07-08 12:51:00
9:51 AM,77.0,69.1,76,30.06,9.0,WSW,6.9,-,N/A,,Scattered Clouds,240,2013-07-08 13:51:00
10:51 AM,80.1,69.1,69,30.07,10.0,WSW,4.6,-,N/A,,Mostly Cloudy,250,2013-07-08 14:51:00
11:51 AM,79.0,68.0,69,30.06,10.0,West,6.9,-,N/A,,Mostly Cloudy,280,2013-07-08 15:51:00
12:51 PM,82.9,68.0,60,30.06,10.0,SW,6.9,-,N/A,,Mostly Cloudy,220,2013-07-08 16:51:00
1:51 PM,84.9,68.0,57,30.04,10.0,West,8.1,16.1,N/A,,Clear,280,2013-07-08 17:51:00
2:51 PM,86.0,68.0,55,30.03,10.0,WSW,10.4,-,N/A,,Partly Cloudy,240,2013-07-08 18:51:00
3:51 PM,86.0,66.0,51,30.01,10.0,WSW,11.5,18.4,N/A,,Scattered Clouds,250,2013-07-08 19:51:00
4:51 PM,86.0,68.0,55,30.00,10.0,WSW,11.5,-,N/A,,Clear,250,2013-07-08 20:51:00
5:51 PM,82.9,66.0,56,30.00,10.0,WSW,13.8,-,N/A,,Clear,250,2013-07-08 21:51:00
6:51 PM,82.9,66.0,56,30.00,10.0,WSW,9.2,-,N/A,,Clear,250,2013-07-08 22:51:00
7:51 PM,79.0,66.0,64,30.03,10.0,WSW,10.4,-,N/A,,Clear,250,2013-07-08 23:51:00
8:51 PM,77.0,64.0,64,30.04,10.0,WSW,8.1,-,N/A,,Clear,250,2013-07-09 00:51:00
9:51 PM,75.0,64.9,71,30.06,10.0,WSW,6.9,-,N/A,,Clear,240,2013-07-09 01:51:00
10:51 PM,72.0,64.0,76,30.06,10.0,WSW,5.8,-,N/A,,Clear,250,2013-07-09 02:51:00
11:51 PM,72.0,64.9,78,30.07,10.0,WSW,3.5,-,N/A,,Clear,250,2013-07-09 03:51:00